Chicago Midway, IL

5:02 AM CDT on October 20, 2017 (GMT -0500)
Chicago-Midway

Weather History for KMDW - February, 2013

Change the Weather History Date:

Monday, February 4, 2013

  Actual Average Record
Temperature  
Mean Temperature 23 °F 26 °F  
Max Temperature 29 °F 33 °F 54 °F (1993)
Min Temperature 17 °F 19 °F -12 °F (1996)
Degree Days  
Heating Degree Days 42 39  
Month to date heating degree days 194 157  
Since 1 July heating degree days 3308 3653  
Cooling Degree Days 0 0  
Month to date cooling degree days 0 0  
Year to date cooling degree days 0 0  
Moisture  
Dew Point 19 °F    
Average Humidity 79    
Maximum Humidity 93    
Minimum Humidity 65    
Precipitation  
Precipitation 0.06 in 0.05 in 0.69 in (1986)
Month to date precipitation 0.11 0.22  
Year to date precipitation 2.66 2.28  
Snow  
Snow 0.00 in - - ()
Snow Depth 2.00 in    
Sea Level Pressure  
Sea Level Pressure 29.94 in    
Wind  
Wind Speed 8 mph (NNE)    
Max Wind Speed 18 mph    
Max Gust Speed 23 mph    
Visibility 6 miles    
Events Snow    
T = Trace of Precipitation, MM = Missing Value Source: NWS Daily Summary

Daily Weather History Graph

Daily Weather History Graph

Search for Another Location

Airport or City:

Trip Planner

Search our weather history database for the weather conditions in past years. The results will help you decide how hot, cold, wet, or windy it might be!

Date:

Astronomy

Feb. 04, 2013 Rise Set
Actual Time 6:59 AM CST 5:10 PM CST
Civil Twilight 6:30 AM CST 5:39 PM CST
Nautical Twilight 5:57 AM CST 6:12 PM CST
Astronomical Twilight 5:24 AM CST 6:45 PM CST
Moon 1:36 AM CST (2/4) 11:32 AM CST (2/4)
Length of Visible Light 11h 09m
Length of Day
10h 10m
Last Quarter, 37% of the Moon is Illuminated
Feb 4
Last Quarter
Feb 10
New
Feb 17
First Quarter
Feb 25
Full
Mar 4
Last Quarter

Hourly Weather History & Observations

Time (CST) Temp. Windchill Dew Point Humidity Pressure Visibility Wind Dir Wind Speed Gust Speed Precip Events Conditions
12:51 AM 21.9 °F 17.2 °F 18.0 °F 85% 30.06 in 1.5 mi WSW 3.5 mph - 0.00 in Snow Light Snow
1:43 AM 21.2 °F 14.9 °F 17.6 °F 86% 29.98 in 2.0 mi ESE 4.6 mph - 0.01 in Snow Light Snow
1:51 AM 21.9 °F 14.5 °F 18.0 °F 85% 30.04 in 2.0 mi SE 5.8 mph - 0.01 in Snow Light Snow
2:42 AM 21.2 °F 13.6 °F 19.4 °F 93% 29.96 in 0.8 mi ESE 5.8 mph - 0.00 in Snow Light Snow
2:51 AM 21.9 °F 13.4 °F 18.0 °F 85% 30.00 in 0.8 mi ESE 6.9 mph - 0.00 in Snow Light Snow
3:09 AM 21.2 °F 12.6 °F 19.4 °F 93% 29.94 in 0.8 mi ESE 6.9 mph - 0.01 in Snow Light Snow
4:51 AM 23.0 °F 17.0 °F 19.4 °F 86% 29.91 in 2.0 mi ESE 4.6 mph - N/A Snow Light Snow
5:18 AM 23.0 °F 15.8 °F 19.4 °F 86% 29.90 in 4.0 mi East 5.8 mph - 0.00 in Snow Light Snow
5:51 AM 23.0 °F 14.7 °F 19.0 °F 85% 29.95 in 10.0 mi East 6.9 mph - 0.00 in Snow Light Snow
6:51 AM 24.1 °F 14.4 °F 19.0 °F 81% 29.94 in 6.0 mi East 9.2 mph - 0.00 in Snow Light Snow
7:27 AM 24.8 °F 13.4 °F 19.4 °F 80% 29.88 in 2.0 mi East 12.7 mph - 0.00 in Snow Light Snow
7:51 AM 25.0 °F 14.8 °F 19.9 °F 81% 29.93 in 2.0 mi East 10.4 mph - 0.00 in Snow Light Snow
8:40 AM 26.6 °F 17.5 °F 19.4 °F 74% 29.88 in 3.0 mi East 9.2 mph - 0.00 in Snow Light Snow
8:51 AM 26.1 °F 18.4 °F 21.0 °F 81% 29.92 in 3.0 mi East 6.9 mph - 0.00 in Snow Light Snow
9:51 AM 26.1 °F 16.2 °F 19.9 °F 78% 29.91 in 9.0 mi ESE 10.4 mph - 0.00 in   Overcast
10:51 AM 27.0 °F 18.7 °F 21.0 °F 78% 29.91 in 9.0 mi East 8.1 mph - N/A   Overcast
11:51 AM 27.0 °F 21.6 °F 21.0 °F 78% 29.91 in 8.0 mi NNE 4.6 mph - N/A   Overcast
12:51 PM 28.0 °F 21.7 °F 21.0 °F 75% 29.90 in 9.0 mi NNE 5.8 mph - N/A   Overcast
1:51 PM 28.9 °F 21.1 °F 21.9 °F 75% 29.90 in 8.0 mi North 8.1 mph - N/A   Overcast
2:31 PM 28.4 °F 19.1 °F 21.2 °F 74% 29.86 in 7.0 mi NNW 10.4 mph - N/A   Overcast
2:51 PM 28.9 °F 18.2 °F 21.9 °F 75% 29.91 in 8.0 mi NNW 13.8 mph - N/A   Overcast
3:46 PM 28.4 °F 18.0 °F 23.0 °F 80% 29.84 in 9.0 mi North 12.7 mph - N/A   Overcast
3:51 PM 28.9 °F 18.6 °F 23.0 °F 78% 29.89 in 9.0 mi North 12.7 mph - N/A   Overcast
4:34 PM 28.4 °F 18.0 °F 21.2 °F 74% 29.86 in 9.0 mi North 12.7 mph - N/A   Overcast
4:51 PM 28.0 °F 18.1 °F 21.9 °F 78% 29.92 in 9.0 mi North 11.5 mph - N/A   Overcast
5:26 PM 26.6 °F 15.2 °F 21.2 °F 80% 29.89 in 4.0 mi North 13.8 mph - 0.00 in Snow Light Snow
5:51 PM 27.0 °F 16.7 °F 21.0 °F 78% 29.95 in 5.0 mi North 11.5 mph - 0.00 in Snow Light Snow
6:46 PM 24.8 °F 14.0 °F 19.4 °F 80% 29.93 in 6.0 mi NNW 11.5 mph - 0.00 in Snow Light Snow
6:51 PM 25.0 °F 15.5 °F 19.0 °F 78% 29.98 in 6.0 mi North 9.2 mph - 0.00 in Snow Light Snow
7:01 PM 24.8 °F 12.9 °F 17.6 °F 74% 29.93 in 6.0 mi NNW 13.8 mph - 0.00 in Snow Light Snow
7:24 PM 24.8 °F 15.3 °F 17.6 °F 74% 29.93 in 6.0 mi North 9.2 mph - 0.00 in Snow Light Snow
7:51 PM 23.0 °F 13.1 °F 17.1 °F 78% 29.99 in 9.0 mi NNW 9.2 mph - 0.00 in Snow Light Snow
8:14 PM 21.2 °F 12.6 °F 15.8 °F 80% 29.94 in 9.0 mi NW 6.9 mph - 0.00 in   Overcast
8:51 PM 21.0 °F 11.4 °F 15.1 °F 78% 30.01 in 10.0 mi NW 8.1 mph - 0.00 in   Mostly Cloudy
9:51 PM 21.0 °F 11.4 °F 15.1 °F 78% 29.99 in 9.0 mi NNW 8.1 mph - N/A   Overcast
10:51 PM 19.0 °F 8.2 °F 12.9 °F 77% 30.00 in 10.0 mi NNW 9.2 mph - N/A   Mostly Cloudy
11:51 PM 17.1 °F 6.6 °F 10.9 °F 77% 30.01 in 10.0 mi NW 8.1 mph - N/A   Mostly Cloudy